Location: Maiden
(35.5760°N, 81.2120°W)
Time: 03:28:30
(UTC-04:00)

SPOT 1/Viking Rocket - Pass Details

Date: 02 August 2020
Orbit: 778 x 793 km, 98.5° (Epoch: 11 August)

Event Time Altitude Azimuth Distance (km) Brightness Sun altitude
Exits shadow 23:07:45 62° 232° (SW) 886 3.7 -27.1°
Maximum altitude 23:08:10 65° 258° (WSW) 869 3.7 -27.1°
Drops below altitude 10° 23:13:21 10° 341° (NNW) 2,363 6.9 -27.8°
Sets 23:15:43 0° 344° (NNW) 3,297 7.8 -28.1°
